CW7104 Weather Reports


time (UTC)temp
C
wind
direction
speed
KPH
gust
KPH
rain 1hr
cm
rain 24hr
cm
rain mn
cm
humidity
%
barometer
mb
20260903015905 28 225 0.0 0.0 0.00 0.00 0.00 65 1014.9
20260903015405 28 225 0.0 0.0 0.00 0.00 0.00 64 1014.9
20260903014405 29 225 0.0 0.0 0.00 0.00 0.00 63 1014.8
20260903013904 29 225 0.0 0.0 0.00 0.00 0.00 63 1014.7
20260903013405 29 225 0.0 0.0 0.00 0.00 0.00 62 1014.7
20260903012904 30 225 0.0 0.0 0.00 0.00 0.00 61 1014.6
20260903012404 30 225 0.0 0.0 0.00 0.00 0.00 60 1014.6
20260903011905 30 225 0.0 0.0 0.00 0.00 0.00 60 1014.6
20260903011404 30 225 0.0 0.0 0.00 0.00 0.00 59 1014.6
20260903010905 30 225 0.0 0.0 0.00 0.00 0.00 58 1014.7
20260903005404 31 225 0.0 0.0 0.00 0.00 0.00 55 1014.5
20260903004905 31 225 0.0 0.0 0.00 0.00 0.00 55 1014.5
20260903004405 31 225 0.0 0.0 0.00 0.00 0.00 54 1014.5
20260903003404 32 225 0.0 0.0 0.00 0.00 0.00 53 1014.6
20260903002904 32 225 0.0 0.0 0.00 0.00 0.00 53 1014.6
20260903002405 32 225 0.0 0.0 0.00 0.00 0.00 52 1014.6
20260903001904 32 225 0.0 0.0 0.00 0.00 0.00 52 1014.5
20260903001405 32 225 0.0 0.0 0.00 0.00 0.00 51 1014.5
20260903000905 33 177 0.0 0.0 0.00 0.00 0.00 50 1014.6
20260903000405 33 227 0.0 0.0 0.00 0.00 0.00 49 1014.6
20260902235905 33 227 0.0 3.2 0.00 0.00 0.00 49 1014.6
20260902235405 33 227 0.0 0.0 0.00 0.00 0.00 48 1014.6
20260902234904 34 227 0.0 0.0 0.00 0.00 0.00 47 1014.7
20260902234404 34 182 0.0 0.0 0.00 0.00 0.00 46 1014.7
20260902233905 35 216 0.0 8.0 0.00 0.00 0.00 46 1014.5
20260902233405 35 207 0.0 0.0 0.00 0.00 0.00 46 1014.5
20260902232404 35 182 0.0 4.8 0.00 0.00 0.00 45 1014.4
20260902231904 35 220 1.6 11.3 0.00 0.00 0.00 45 1014.5
20260902231405 35 200 0.0 11.3 0.00 0.00 0.00 45 1014.5
20260902230905 35 220 0.0 8.0 0.00 0.00 0.00 45 1014.6
20260902225904 35 176 0.0 11.3 0.00 0.00 0.00 44 1014.6
20260902225404 35 190 1.6 9.7 0.00 0.00 0.00 44 1014.5
20260902224405 35 232 4.8 16.1 0.00 0.00 0.00 43 1014.5
20260902223404 36 235 0.0 0.0 0.00 0.00 0.00 41 1014.6
20260902222905 36 199 0.0 8.0 0.00 0.00 0.00 41 1014.6
20260902222405 36 161 4.8 12.9 0.00 0.00 0.00 40 1014.6
20260902220905 37 211 1.6 9.7 0.00 0.00 0.00 40 1014.6
20260902220404 37 196 3.2 19.3 0.00 0.00 0.00 40 1014.7
20260902215904 37 195 0.0 9.7 0.00 0.00 0.00 39 1014.6
20260902215404 37 217 3.2 11.3 0.00 0.00 0.00 38 1014.7
20260902214905 37 222 0.0 9.7 0.00 0.00 0.00 39 1014.7
20260902214405 37 212 4.8 16.1 0.00 0.00 0.00 39 1014.7
20260902213904 37 220 1.6 8.0 0.00 0.00 0.00 36 1014.8
20260902213404 37 165 3.2 12.9 0.00 0.00 0.00 35 1014.8
20260902212905 37 214 4.8 14.5 0.00 0.00 0.00 36 1014.8
20260902212405 37 175 1.6 9.7 0.00 0.00 0.00 37 1014.8
20260902211905 37 187 4.8 14.5 0.00 0.00 0.00 37 1014.8
20260902211405 37 205 3.2 12.9 0.00 0.00 0.00 37 1014.9
20260902210405 38 196 4.8 16.1 0.00 0.00 0.00 38 1014.9
20260902205404 38 164 1.6 12.9 0.00 0.00 0.00 38 1015.0
20260902204905 38 176 1.6 11.3 0.00 0.00 0.00 36 1015.0
20260902204405 38 231 1.6 9.7 0.00 0.00 0.00 37 1015.0
20260902203904 38 149 0.0 9.7 0.00 0.00 0.00 38 1015.1
20260902203404 38 174 3.2 19.3 0.00 0.00 0.00 40 1015.1
20260902202905 38 155 3.2 16.1 0.00 0.00 0.00 39 1015.1
20260902202404 37 172 3.2 11.3 0.00 0.00 0.00 39 1015.2
20260902201904 37 182 1.6 11.3 0.00 0.00 0.00 40 1015.2
20260902201404 37 198 4.8 19.3 0.00 0.00 0.00 40 1015.3
20260902200404 37 148 3.2 14.5 0.00 0.00 0.00 40 1015.4
20260902195904 37 156 3.2 12.9 0.00 0.00 0.00 41 1015.4
20260902195405 37 126 1.6 19.3 0.00 0.00 0.00 41 1015.4
20260902194905 37 167 3.2 19.3 0.00 0.00 0.00 41 1015.5
20260902194404 37 137 4.8 11.3 0.00 0.00 0.00 41 1015.6
20260902193904 37 150 4.8 19.3 0.00 0.00 0.00 42 1015.6
20260902193405 37 168 4.8 19.3 0.00 0.00 0.00 41 1015.6
20260902192404 37 148 4.8 14.5 0.00 0.00 0.00 42 1015.8
20260902191904 37 187 4.8 16.1 0.00 0.00 0.00 42 1015.8
20260902191404 37 164 4.8 16.1 0.00 0.00 0.00 43 1015.9
20260902190904 37 209 3.2 19.3 0.00 0.00 0.00 42 1016.0
20260902190404 37 229 3.2 16.1 0.00 0.00 0.00 43 1016.0
20260902185404 37 250 1.6 14.5 0.00 0.00 0.00 42 1016.1
20260902184904 37 148 4.8 19.3 0.00 0.00 0.00 41 1016.1
20260902184404 37 177 4.8 12.9 0.00 0.00 0.00 42 1016.2
20260902183904 37 205 6.4 14.5 0.00 0.00 0.00 42 1016.2
20260902183404 37 210 4.8 20.9 0.00 0.00 0.00 42 1016.3
20260902182904 37 237 3.2 9.7 0.00 0.00 0.00 45 1016.3
20260902182405 37 216 1.6 11.3 0.00 0.00 0.00 44 1016.3
20260902181904 36 234 4.8 12.9 0.00 0.00 0.00 43 1016.4
20260902181404 36 192 1.6 14.5 0.00 0.00 0.00 45 1016.4
20260902180904 36 180 6.4 14.5 0.00 0.00 0.00 44 1016.4
20260902180405 37 187 4.8 16.1 0.00 0.00 0.00 45 1016.4
20260902175904 37 159 1.6 11.3 0.00 0.00 0.00 45 1016.4
20260902175404 36 179 1.6 14.5 0.00 0.00 0.00 45 1016.5
20260902174904 36 171 8.0 19.3 0.00 0.00 0.00 44 1016.5
20260902174404 36 245 4.8 12.9 0.00 0.00 0.00 44 1016.6
20260902173904 36 178 3.2 9.7 0.00 0.00 0.00 44 1016.7
20260902173404 36 205 3.2 16.1 0.00 0.00 0.00 45 1016.7
20260902172904 36 240 4.8 12.9 0.00 0.00 0.00 45 1016.8
20260902172404 36 232 1.6 14.5 0.00 0.00 0.00 47 1016.8
20260902171904 36 143 3.2 16.1 0.00 0.00 0.00 47 1016.9
20260902171404 36 243 3.2 9.7 0.00 0.00 0.00 47 1016.9
20260902170904 36 188 3.2 11.3 0.00 0.00 0.00 47 1017.0
20260902170404 36 221 1.6 11.3 0.00 0.00 0.00 48 1017.1
20260902165904 36 265 1.6 14.5 0.00 0.00 0.00 47 1017.1
20260902164904 35 223 0.0 0.0 0.00 0.00 0.00 51 1017.1
20260902164404 35 273 0.0 9.7 0.00 0.00 0.00 48 1017.2
20260902163404 35 169 1.6 9.7 0.00 0.00 0.00 51 1017.3
20260902162904 35 180 1.6 11.3 0.00 0.00 0.00 50 1017.4
20260902162404 35 237 0.0 11.3 0.00 0.00 0.00 50 1017.4
20260902161904 35 190 1.6 11.3 0.00 0.00 0.00 51 1017.5
20260902161404 35 161 1.6 11.3 0.00 0.00 0.00 52 1017.5
20260902160904 35 245 8.0 14.5 0.00 0.00 0.00 51 1017.4
20260902160404 35 140 8.0 11.3 0.00 0.00 0.00 52 1017.5
20260902155904 35 171 0.0 9.7 0.00 0.00 0.00 53 1017.5
20260902155404 34 189 1.6 9.7 0.00 0.00 0.00 52 1017.6
20260902154908 34 189 1.6 12.9 0.00 0.00 0.00 53 1017.7
20260902153904 33 193 6.4 11.3 0.00 0.00 0.00 54 1017.7
20260902153404 33 172 1.6 11.3 0.00 0.00 0.00 56 1017.7
20260902152904 33 230 3.2 12.9 0.00 0.00 0.00 54 1017.8
20260902152404 33 194 0.0 4.8 0.00 0.00 0.00 55 1017.7
20260902151904 33 165 0.0 4.8 0.00 0.00 0.00 56 1017.8
20260902151404 32 230 1.6 11.3 0.00 0.00 0.00 57 1017.7
20260902145904 31 183 4.8 11.3 0.00 0.00 0.00 60 1017.8
20260902144904 31 200 0.0 9.7 0.00 0.00 0.00 62 1017.7
20260902144404 30 225 0.0 0.0 0.00 0.00 0.00 63 1017.8
20260902143404 30 200 3.2 12.9 0.00 0.00 0.00 65 1017.8
20260902142404 29 200 3.2 11.3 0.00 0.00 0.00 68 1017.9
20260902141403 28 186 0.0 0.0 0.00 0.00 0.00 72 1018.0
20260902135904 27 207 0.0 0.0 0.00 0.00 0.00 76 1017.9
20260902135404 27 207 0.0 0.0 0.00 0.00 0.00 77 1018.0
20260902134904 26 207 0.0 0.0 0.00 0.00 0.00 78 1018.0
20260902134404 26 207 0.0 0.0 0.00 0.00 0.00 79 1018.0
20260902133403 25 206 0.0 3.2 0.00 0.00 0.00 80 1018.0
20260902132904 25 207 0.0 4.8 0.00 0.00 0.00 81 1018.1
20260902132404 25 158 0.0 0.0 0.00 0.00 0.00 81 1018.0
20260902131904 25 158 0.0 0.0 0.00 0.00 0.00 82 1018.1
20260902130904 24 144 0.0 4.8 0.00 0.00 0.00 82 1018.1
20260902130404 23 144 1.6 4.8 0.00 0.00 0.00 82 1018.1
20260902125903 23 154 0.0 0.0 0.00 0.00 0.00 82 1018.0
20260902125403 23 148 0.0 0.0 0.00 0.00 0.00 82 1018.1
20260902124904 23 177 0.0 0.0 0.00 0.00 0.00 82 1018.1
20260902124404 23 176 0.0 0.0 0.00 0.00 0.00 82 1018.1
20260902123404 22 205 0.0 0.0 0.00 0.00 0.00 82 1018.1
20260902122904 22 207 0.0 0.0 0.00 0.00 0.00 82 1018.1
20260902121904 22 207 0.0 0.0 0.00 0.00 0.00 82 1018.1
20260902121404 21 207 0.0 0.0 0.00 0.00 0.00 82 1018.0
20260902120903 21 207 0.0 0.0 0.00 0.00 0.00 82 1017.9
20260902120403 21 207 0.0 0.0 0.00 0.00 0.00 82 1017.8
20260902115404 21 207 0.0 0.0 0.00 0.00 0.00 82 1017.7
20260902114904 21 207 0.0 0.0 0.00 0.00 0.00 82 1017.6
20260902114404 21 207 0.0 0.0 0.00 0.00 0.00 82 1017.6
20260902113903 21 207 0.0 0.0 0.00 0.00 0.00 82 1017.5
20260902113404 21 207 0.0 0.0 0.00 0.00 0.00 82 1017.4
20260902112904 21 207 0.0 0.0 0.00 0.00 0.00 82 1017.3
20260902112403 21 207 0.0 0.0 0.00 0.00 0.00 82 1017.3
20260902111404 21 207 0.0 0.0 0.00 0.00 0.00 82 1017.2
20260902110904 21 207 0.0 0.0 0.00 0.00 0.00 82 1017.1
20260902110404 21 207 0.0 0.0 0.00 0.00 0.00 82 1017.0
20260902105903 21 207 0.0 0.0 0.00 0.00 0.00 82 1017.0
20260902105404 21 207 0.0 0.0 0.00 0.00 0.00 82 1017.0
20260902104904 21 207 0.0 0.0 0.00 0.00 0.00 82 1016.9
20260902104403 21 207 0.0 0.0 0.00 0.00 0.00 82 1016.9
20260902103903 21 206 0.0 0.0 0.00 0.00 0.00 82 1016.9
20260902102903 21 207 0.0 0.0 0.00 0.00 0.00 82 1016.9
20260902102404 21 207 0.0 0.0 0.00 0.00 0.00 82 1016.9
20260902101904 21 207 0.0 0.0 0.00 0.00 0.00 82 1016.9
20260902101404 21 206 0.0 0.0 0.00 0.00 0.00 82 1016.9
20260902100903 21 207 0.0 0.0 0.00 0.00 0.00 82 1016.8
20260902100403 21 207 0.0 0.0 0.00 0.00 0.00 82 1016.8
20260902095904 21 207 0.0 0.0 0.00 0.00 0.00 82 1016.8
20260902095404 21 207 0.0 0.0 0.00 0.00 0.00 82 1016.8
20260902094904 21 207 0.0 0.0 0.00 0.00 0.00 82 1016.8
20260902094404 21 207 0.0 0.0 0.00 0.00 0.00 82 1016.7
20260902093904 21 207 0.0 0.0 0.00 0.00 0.00 82 1016.7
20260902092904 21 207 0.0 0.0 0.00 0.00 0.00 82 1016.6
20260902092404 21 207 0.0 0.0 0.00 0.00 0.00 82 1016.5
20260902091904 21 207 0.0 0.0 0.00 0.00 0.00 82 1016.5
20260902090905 22 207 0.0 0.0 0.00 0.00 0.00 82 1016.4
20260902085905 22 207 0.0 0.0 0.00 0.00 0.00 82 1016.3
20260902085405 22 207 0.0 0.0 0.00 0.00 0.00 82 1016.3
20260902084905 22 206 0.0 0.0 0.00 0.00 0.00 82 1016.3
20260902084405 22 207 0.0 0.0 0.00 0.00 0.00 82 1016.4
20260902083405 22 207 0.0 0.0 0.00 0.00 0.00 82 1016.3
20260902082905 22 207 0.0 0.0 0.00 0.00 0.00 82 1016.3
20260902082405 22 207 0.0 0.0 0.00 0.00 0.00 82 1016.3
20260902081905 22 207 0.0 0.0 0.00 0.00 0.00 82 1016.2
20260902080906 22 207 0.0 0.0 0.00 0.00 0.00 82 1016.1
20260902080405 22 207 0.0 0.0 0.00 0.00 0.00 82 1016.2
20260902075405 22 207 0.0 0.0 0.00 0.00 0.00 81 1016.2
20260902074405 22 207 0.0 0.0 0.00 0.00 0.00 81 1016.3
20260902073905 22 207 0.0 0.0 0.00 0.00 0.00 81 1016.3
20260902073405 22 207 0.0 0.0 0.00 0.00 0.00 81 1016.3
20260902072905 22 207 0.0 0.0 0.00 0.00 0.00 81 1016.3
20260902072405 22 207 0.0 0.0 0.00 0.00 0.00 81 1016.2
20260902071405 22 207 0.0 0.0 0.00 0.00 0.00 81 1016.2
20260902070405 22 207 0.0 0.0 0.00 0.00 0.00 81 1016.3
20260902065905 22 207 0.0 0.0 0.00 0.00 0.00 81 1016.4
20260902065405 22 207 0.0 0.0 0.00 0.00 0.00 81 1016.3
20260902064905 22 207 0.0 0.0 0.00 0.00 0.00 81 1016.3
20260902064405 22 207 0.0 0.0 0.00 0.00 0.00 81 1016.3
20260902063905 22 207 0.0 0.0 0.00 0.00 0.00 81 1016.3
20260902062905 23 206 0.0 0.0 0.00 0.00 0.00 80 1016.2
20260902062405 23 206 0.0 0.0 0.00 0.00 0.00 80 1016.2
20260902061905 23 206 0.0 0.0 0.00 0.00 0.00 80 1016.2
20260902061405 23 206 0.0 0.0 0.00 0.00 0.00 80 1016.2
20260902060905 23 206 0.0 0.0 0.00 0.00 0.00 80 1016.3
20260902060405 23 206 0.0 0.0 0.00 0.00 0.00 80 1016.3
20260902055905 23 206 0.0 0.0 0.00 0.00 0.00 80 1016.2
20260902055405 23 206 0.0 0.0 0.00 0.00 0.00 80 1016.2
20260902054904 23 206 0.0 0.0 0.00 0.00 0.00 79 1016.3
20260902054405 23 206 0.0 0.0 0.00 0.00 0.00 79 1016.3
20260902053905 23 206 0.0 0.0 0.00 0.00 0.00 79 1016.3
20260902052905 23 206 0.0 0.0 0.00 0.00 0.00 78 1016.2
20260902051405 24 206 0.0 0.0 0.00 0.00 0.00 78 1016.1
20260902050905 24 205 0.0 0.0 0.00 0.00 0.00 78 1016.1
20260902050405 24 205 0.0 0.0 0.00 0.00 0.00 79 1016.1
20260902044904 24 205 0.0 0.0 0.00 0.00 0.00 78 1015.9
20260902044405 24 205 0.0 0.0 0.00 0.00 0.00 78 1015.9
20260902043405 25 205 0.0 0.0 0.00 0.00 0.00 77 1015.9
20260902042905 25 205 0.0 0.0 0.00 0.00 0.00 77 1016.0
20260902042405 25 205 0.0 0.0 0.00 0.00 0.00 76 1016.1
20260902041404 25 205 0.0 0.0 0.00 0.00 0.00 75 1016.1
20260902040405 25 205 0.0 0.0 0.00 0.00 0.00 75 1016.2
20260902035905 25 205 0.0 0.0 0.00 0.00 0.00 74 1016.2
20260902035405 26 205 0.0 0.0 0.00 0.00 0.00 73 1016.2
20260902034405 26 205 0.0 0.0 0.00 0.00 0.00 73 1016.1
20260902033904 26 205 0.0 0.0 0.00 0.00 0.00 72 1016.1
20260902033405 26 205 0.0 0.0 0.00 0.00 0.00 72 1016.1
20260902032905 26 205 0.0 0.0 0.00 0.00 0.00 72 1016.2
20260902031905 26 205 0.0 0.0 0.00 0.00 0.00 71 1016.2
20260902031404 26 205 0.0 0.0 0.00 0.00 0.00 71 1016.2
20260902030905 27 205 0.0 0.0 0.00 0.00 0.00 70 1016.2
20260902030405 27 205 0.0 0.0 0.00 0.00 0.00 70 1016.1
20260902025904 27 205 0.0 0.0 0.00 0.00 0.00 70 1016.2
20260902025405 27 205 0.0 0.0 0.00 0.00 0.00 69 1016.2
20260902024904 27 205 0.0 0.0 0.00 0.00 0.00 68 1016.2
20260902024405 27 205 0.0 0.0 0.00 0.00 0.00 68 1016.2
20260902023904 27 205 0.0 0.0 0.00 0.00 0.00 68 1016.2
20260902023405 27 205 0.0 0.0 0.00 0.00 0.00 68 1016.1
20260902022905 27 205 0.0 0.0 0.00 0.00 0.00 67 1016.2
20260902020905 28 205 0.0 0.0 0.00 0.00 0.00 66 1016.0
20260902020405 28 205 0.0 0.0 0.00 0.00 0.00 65 1016.0